Weather History for KSTE - April, 2013

Change the Weather History Date:

Saturday, April 6, 2013

  Actual Average Record
Temperature  
Mean Temperature 36 °F -  
Max Temperature 45 °F 49 °F 79 °F (1991)
Min Temperature 27 °F 29 °F 9 °F (1979)
Degree Days  
Heating Degree Days 29    
Moisture  
Dew Point 31 °F    
Average Humidity 84    
Maximum Humidity 98    
Minimum Humidity 60    
Precipitation  
Precipitation 0.05 in - - ()
Sea Level Pressure  
Sea Level Pressure 29.76 in    
Wind  
Wind Speed 10 mph (ESE)    
Max Wind Speed 17 mph    
Max Gust Speed 29 mph    
Visibility 8 miles    
Events Rain    
Averages and records for this station are not official NWS values.
T = Trace of Precipitation, MM = Missing Value Source: NWS Daily Summary

Daily Weather History Graph

Daily Weather History Graph

Search for Another Location

Airport or City:

Trip Planner

Search our weather history database for the weather conditions in past years. The results will help you decide how hot, cold, wet, or windy it might be!

Date:

Astronomy

Apr. 06, 2013 Rise Set
Actual Time 6:29 AM CDT 7:32 PM CDT
Civil Twilight 5:59 AM CDT 8:01 PM CDT
Nautical Twilight 5:24 AM CDT 8:37 PM CDT
Astronomical Twilight 4:47 AM CDT 9:15 PM CDT
Moon 4:21 AM CDT 3:53 PM CDT
Length of Visible Light 14h 02m
Length of Day
13h 02m
Waning Crescent, 15% of the Moon is Illuminated
Apr 6
Waning Crescent
Apr 10
New
Apr 18
First Quarter
Apr 25
Full
May 2
Last Quarter

Hourly Weather History & Observations

Time (CDT) Temp. Windchill Dew Point Humidity Pressure Visibility Wind Dir Wind Speed Gust Speed Precip Events Conditions
12:15 AM 28.9 °F 23.9 °F 27.9 °F 96% 30.12 in 2.0 mi ESE 4.6 mph - N/A   Overcast
12:35 AM 28.9 °F 21.9 °F 27.9 °F 96% 30.11 in 1.8 mi SE 6.9 mph - N/A   Overcast
12:55 AM 28.9 °F 21.1 °F 27.9 °F 96% 30.10 in 2.5 mi ESE 8.1 mph - 0.01 in   Overcast
1:15 AM 29.1 °F 20.6 °F 27.9 °F 95% 30.09 in 3.0 mi ESE 9.2 mph - N/A   Overcast
1:35 AM 29.1 °F 17.9 °F 27.3 °F 93% 30.07 in 7.0 mi East 15.0 mph - N/A   Overcast
1:55 AM 28.8 °F 17.5 °F 26.6 °F 92% 30.07 in 10.0 mi ESE 15.0 mph 19.6 mph N/A   Overcast
2:15 AM 28.8 °F 17.9 °F 26.4 °F 91% 30.06 in 10.0 mi ESE 13.8 mph - N/A   Overcast
2:35 AM 28.4 °F 19.1 °F 26.4 °F 92% 30.05 in 10.0 mi ESE 10.4 mph 17.3 mph N/A   Overcast
2:55 AM 28.4 °F 19.7 °F 26.4 °F 92% 30.05 in 10.0 mi East 9.2 mph - N/A   Overcast
3:15 AM 28.4 °F 18.5 °F 26.4 °F 92% 30.04 in 10.0 mi ESE 11.5 mph - N/A   Overcast
3:35 AM 28.0 °F 17.0 °F 26.2 °F 93% 30.02 in 10.0 mi ESE 13.8 mph 18.4 mph N/A   Overcast
3:55 AM 28.0 °F 17.5 °F 26.6 °F 94% 30.01 in 10.0 mi ESE 12.7 mph 17.3 mph N/A   Overcast
4:15 AM 27.9 °F 17.3 °F 26.4 °F 94% 30.01 in 10.0 mi SE 12.7 mph 16.1 mph N/A   Overcast
4:35 AM 27.9 °F 17.3 °F 26.4 °F 94% 30.00 in 10.0 mi ESE 12.7 mph 19.6 mph N/A   Overcast
4:55 AM 28.0 °F 18.1 °F 26.6 °F 94% 29.99 in 10.0 mi ESE 11.5 mph - N/A   Overcast
5:15 AM 28.2 °F 19.5 °F 26.6 °F 94% 29.98 in 10.0 mi ESE 9.2 mph 16.1 mph N/A   Overcast
5:54 AM 28.4 °F 17.5 °F 26.6 °F 93% 29.97 in 10.0 mi ESE 13.8 mph 19.6 mph N/A   Overcast
6:15 AM 28.4 °F 19.1 °F 25.3 °F 88% 29.96 in 10.0 mi SE 10.4 mph 21.9 mph N/A   Overcast
6:35 AM 28.4 °F 18.0 °F 25.7 °F 90% 29.96 in 10.0 mi ESE 12.7 mph 18.4 mph N/A   Overcast
6:55 AM 28.4 °F 17.5 °F 26.1 °F 91% 29.94 in 10.0 mi ESE 13.8 mph 19.6 mph N/A   Overcast
7:15 AM 28.9 °F 17.3 °F 25.7 °F 88% 29.93 in 10.0 mi ESE 16.1 mph 21.9 mph N/A   Overcast
7:35 AM 29.3 °F 19.6 °F 25.5 °F 86% 29.91 in 10.0 mi ESE 11.5 mph 23.0 mph N/A   Mostly Cloudy
7:55 AM 30.2 °F 18.9 °F 25.3 °F 82% 29.90 in 10.0 mi ESE 16.1 mph 28.8 mph N/A   Scattered Clouds
8:15 AM 30.7 °F 20.0 °F 25.3 °F 80% 29.90 in 10.0 mi ESE 15.0 mph 24.2 mph N/A   Clear
8:35 AM 31.1 °F 20.9 °F 25.7 °F 80% 29.88 in 10.0 mi ESE 13.8 mph 20.7 mph N/A   Scattered Clouds
8:55 AM 32.0 °F 22.5 °F 25.7 °F 78% 29.86 in 10.0 mi ESE 12.7 mph 20.7 mph N/A   Scattered Clouds
9:15 AM 32.2 °F 21.4 °F 26.1 °F 78% 29.85 in 10.0 mi SE 16.1 mph 21.9 mph N/A   Scattered Clouds
9:35 AM 33.6 °F 25.6 °F 25.7 °F 73% 29.84 in 10.0 mi SE 10.4 mph 19.6 mph N/A   Scattered Clouds
9:55 AM 34.2 °F 25.2 °F 26.1 °F 72% 29.83 in 10.0 mi SE 12.7 mph 23.0 mph N/A   Mostly Cloudy
10:15 AM 34.0 °F 24.2 °F 26.4 °F 74% 29.81 in 10.0 mi SE 15.0 mph - N/A   Overcast
10:35 AM 34.2 °F 25.2 °F 26.8 °F 74% 29.80 in 10.0 mi ESE 12.7 mph 16.1 mph N/A   Overcast
10:55 AM 35.1 °F 28.6 °F 27.1 °F 73% 29.79 in 10.0 mi SE 8.1 mph - N/A   Mostly Cloudy
11:15 AM 35.4 °F 26.8 °F 27.3 °F 72% 29.77 in 10.0 mi SE 12.7 mph 20.7 mph N/A   Mostly Cloudy
11:35 AM 35.2 °F 27.6 °F 28.0 °F 75% 29.76 in 10.0 mi SE 10.4 mph 16.1 mph N/A   Overcast
11:55 AM 35.6 °F 27.1 °F 28.4 °F 75% 29.75 in 10.0 mi SE 12.7 mph 18.4 mph N/A   Overcast
12:35 PM 35.8 °F 28.8 °F 28.9 °F 76% 29.72 in 10.0 mi SE 9.2 mph - N/A   Overcast
12:55 PM 37.4 °F 31.4 °F 30.0 °F 75% 29.70 in 10.0 mi SE 8.1 mph - N/A   Overcast
1:15 PM 40.3 °F 33.4 °F 31.3 °F 70% 29.69 in 10.0 mi SE 11.5 mph - N/A   Mostly Cloudy
1:35 PM 43.2 °F 36.6 °F 31.6 °F 64% 29.68 in 10.0 mi SSE 12.7 mph 19.6 mph N/A   Scattered Clouds
1:55 PM 44.2 °F 36.7 °F 31.8 °F 62% 29.67 in 10.0 mi SSE 17.3 mph 20.7 mph N/A   Clear
2:15 PM 43.5 °F 37.5 °F 31.5 °F 63% 29.66 in 10.0 mi SE 11.5 mph 17.3 mph N/A   Clear
2:35 PM 44.6 °F 38.4 °F 32.0 °F 61% 29.65 in 10.0 mi SE 12.7 mph 16.1 mph N/A   Mostly Cloudy
2:55 PM 45.0 °F 40.6 °F 32.0 °F 60% 29.64 in 10.0 mi SE 8.1 mph - N/A   Overcast
3:15 PM 44.6 °F 40.7 °F 32.0 °F 61% 29.62 in 10.0 mi SE 6.9 mph - N/A   Overcast
3:35 PM 44.1 °F 40.1 °F 32.0 °F 63% 29.61 in 10.0 mi SE 6.9 mph - N/A   Overcast
3:55 PM 43.9 °F 40.5 °F 32.0 °F 63% 29.59 in 10.0 mi ESE 5.8 mph - N/A   Overcast
4:15 PM 43.7 °F 39.7 °F 32.4 °F 64% 29.59 in 10.0 mi East 6.9 mph - N/A   Overcast
4:35 PM 42.6 °F 39.0 °F 32.5 °F 68% 29.59 in 10.0 mi East 5.8 mph - N/A   Overcast
4:55 PM 42.3 °F 37.9 °F 32.4 °F 68% 29.57 in 10.0 mi East 6.9 mph - N/A   Overcast
5:15 PM 41.9 °F 35.9 °F 32.2 °F 68% 29.56 in 10.0 mi East 10.4 mph - N/A   Overcast
5:35 PM 40.3 °F 34.4 °F 33.8 °F 78% 29.56 in 7.0 mi East 9.2 mph - N/A Rain Rain
5:55 PM 38.7 °F 32.9 °F 34.9 °F 86% 29.55 in 7.0 mi East 8.1 mph - 0.01 in Rain Light Rain
6:15 PM 38.3 °F 33.9 °F 35.2 °F 89% 29.54 in 5.0 mi East 5.8 mph - N/A Rain Light Rain
6:35 PM 38.1 °F 34.6 °F 35.4 °F 90% 29.53 in 5.0 mi East 4.6 mph - N/A   Drizzle
6:55 PM 38.1 °F 35.7 °F 35.8 °F 91% 29.52 in 5.0 mi East 3.5 mph - N/A   Drizzle
7:15 PM 37.4 °F 34.9 °F 36.0 °F 95% 29.50 in 4.0 mi East 3.5 mph - N/A Rain Light Rain
7:35 PM 37.4 °F 33.8 °F 36.0 °F 95% 29.49 in 5.0 mi East 4.6 mph - N/A Rain Rain
7:55 PM 37.4 °F 34.9 °F 36.0 °F 95% 29.49 in 5.0 mi East 3.5 mph - 0.01 in Rain Rain
8:15 PM 37.4 °F - 36.0 °F 95% 29.49 in 5.0 mi Calm Calm - N/A Rain Light Rain
8:35 PM 37.4 °F - 36.3 °F 96% 29.49 in 3.0 mi Calm Calm - 0.01 in Rain Light Rain
8:55 PM 37.9 °F - 36.9 °F 96% 29.49 in 3.0 mi Calm Calm - 0.02 in Rain Light Rain
9:15 PM 37.9 °F - 37.4 °F 98% 29.49 in 3.0 mi Calm Calm - N/A   Light Drizzle
9:35 PM 39.2 °F 37.0 °F 38.3 °F 97% 29.49 in 3.0 mi WSW 3.5 mph - N/A   Overcast
9:55 PM 41.9 °F 35.9 °F 41.4 °F 98% 29.49 in 3.0 mi WSW 10.4 mph - N/A   Light Drizzle
10:15 PM 43.2 °F 37.0 °F 42.4 °F 97% 29.49 in 5.0 mi WSW 11.5 mph 18.4 mph N/A Rain Light Rain
10:35 PM 43.0 °F 35.7 °F 41.5 °F 95% 29.50 in 7.0 mi WSW 15.0 mph 23.0 mph N/A Rain Rain
10:55 PM 41.5 °F 34.6 °F 39.9 °F 94% 29.51 in 10.0 mi West 12.7 mph 18.4 mph N/A   Light Drizzle
11:15 PM 39.9 °F 33.4 °F 38.3 °F 94% 29.52 in 10.0 mi WNW 10.4 mph 19.6 mph N/A   Overcast
11:35 PM 38.3 °F 31.4 °F 36.9 °F 95% 29.53 in 5.0 mi WNW 10.4 mph - N/A   Overcast
11:55 PM 37.4 °F 30.3 °F 36.0 °F 95% 29.54 in 5.0 mi West 10.4 mph - N/A Rain Light Rain